When you browse on this site, cookies collect data to enhance your experience and personalize the content and advertising you see.
Visit our Privacy Policy to learn more. By continuing to use the site, you agree to this use of cookies and data.

Tiempo cada hora Lucena

Hoy, 22 Septiembre, Martes

Tiempo Temperatura Precipitaciones Viento Presión Humedad
00:00 +20°C° 0 mm 0 mps 716 mmHg 46%
01:00 +20°C° 0 mm 0 mps 716 mmHg 47%
02:00 +19°C° 0 mm 0 mps 716 mmHg 48%
03:00 +19°C° 0 mm 0 mps 715 mmHg 49%
04:00 +18°C° 0 mm 0 mps 715 mmHg 49%
05:00 +18°C° 0 mm 0 mps 715 mmHg 50%
06:00 +20°C° 0 mm 1 mps 715 mmHg 48%
07:00 +21°C° 0 mm 1 mps 716 mmHg 44%
08:00 +23°C° 0 mm 1 mps 716 mmHg 40%
09:00 +24°C° 0 mm 1 mps 716 mmHg 36%
10:00 +25°C° 0 mm 1 mps 716 mmHg 33%
11:00 +26°C° 0 mm 2 mps 716 mmHg 30%
12:00 +28°C° 0 mm 2 mps 717 mmHg 30%
13:00 +28°C° 0 mm 2 mps 716 mmHg 28%
14:00 +28°C° 0 mm 3 mps 716 mmHg 27%
15:00 +29°C° 0 mm 3 mps 715 mmHg 25%
16:00 +28°C° 0 mm 3 mps 715 mmHg 27%
17:00 +27°C° 0 mm 3 mps 715 mmHg 30%
18:00 +26°C° 0 mm 3 mps 715 mmHg 32%
19:00 +25°C° 0 mm 3 mps 715 mmHg 35%
20:00 +24°C° 0 mm 3 mps 715 mmHg 39%
21:00 +22°C° 0 mm 3 mps 715 mmHg 43%
22:00 +21°C° 0 mm 2 mps 715 mmHg 48%
23:00 +21°C° 0 mm 2 mps 715 mmHg 53%

Mañana, 23 Septiembre, Miércoles

Tiempo Temperatura Precipitaciones Viento Presión Humedad
00:00 +20°C° 0 mm 2 mps 715 mmHg 58%
01:00 +19°C° 0 mm 2 mps 715 mmHg 58%
02:00 +20°C° 0 mm 1 mps 715 mmHg 59%
03:00 +20°C° 0 mm 1 mps 714 mmHg 59%
04:00 +20°C° 0 mm 1 mps 715 mmHg 57%
05:00 +20°C° 0 mm 1 mps 715 mmHg 55%
06:00 +20°C° 0 mm 1 mps 715 mmHg 53%
07:00 +21°C° 0 mm 2 mps 715 mmHg 49%
08:00 +23°C° 0 mm 2 mps 716 mmHg 45%
09:00 +24°C° 0 mm 2 mps 716 mmHg 41%
10:00 +25°C° 0 mm 3 mps 716 mmHg 42%
11:00 +26°C° 0 mm 4 mps 716 mmHg 42%
12:00 +27°C° 0 mm 5 mps 716 mmHg 43%
13:00 +27°C° 0 mm 6 mps 716 mmHg 43%
14:00 +28°C° 0 mm 6 mps 716 mmHg 42%
15:00 +28°C° 0 mm 6 mps 715 mmHg 42%
16:00 +27°C° 0 mm 5 mps 715 mmHg 45%
17:00 +26°C° 0 mm 5 mps 715 mmHg 48%
18:00 +25°C° 0 mm 4 mps 715 mmHg 52%
19:00 +24°C° 0 mm 3 mps 716 mmHg 56%
20:00 +23°C° 0 mm 2 mps 716 mmHg 60%
21:00 +22°C° 0 mm 1 mps 716 mmHg 63%
22:00 +22°C° 0 mm 1 mps 716 mmHg 67%
23:00 +21°C° 0 mm 1 mps 716 mmHg 71%

Pasado mañana, 24 Septiembre, Jueves

Tiempo Temperatura Precipitaciones Viento Presión Humedad
00:00 +21°C° 0 mm 1 mps 716 mmHg 74%
01:00 +20°C° 0 mm 1 mps 716 mmHg 77%
02:00 +20°C° 0 mm 1 mps 716 mmHg 80%
03:00 +19°C° 0 mm 1 mps 715 mmHg 83%
04:00 +19°C° 0 mm 1 mps 715 mmHg 84%
05:00 +17°C° 0 mm 0 mps 716 mmHg 85%
06:00 +17°C° 0 mm 0 mps 716 mmHg 85%
07:00 +20°C° 0 mm 1 mps 716 mmHg 79%
08:00 +21°C° 0 mm 1 mps 716 mmHg 73%
09:00 +23°C° 0 mm 2 mps 717 mmHg 66%
10:00 +24°C° 0 mm 2 mps 717 mmHg 60%
11:00 +25°C° 0 mm 3 mps 717 mmHg 54%
12:00 +27°C° 0 mm 3 mps 717 mmHg 47%
13:00 +27°C° 0 mm 4 mps 717 mmHg 45%
14:00 +28°C° 0 mm 5 mps 717 mmHg 43%
15:00 +29°C° 0 mm 6 mps 717 mmHg 41%
16:00 +28°C° 0 mm 5 mps 717 mmHg 42%
17:00 +27°C° 0 mm 5 mps 717 mmHg 44%
18:00 +27°C° 0 mm 4 mps 716 mmHg 46%
19:00 +25°C° 0 mm 4 mps 717 mmHg 52%
20:00 +23°C° 0 mm 4 mps 717 mmHg 58%
21:00 +22°C° 0 mm 3 mps 718 mmHg 64%
22:00 +21°C° 0 mm 3 mps 718 mmHg 69%
23:00 +21°C° 0 mm 2 mps 718 mmHg 74%

25 Septiembre, Viernes

Tiempo Temperatura Precipitaciones Viento Presión Humedad
00:00 +20°C° 0 mm 2 mps 718 mmHg 78%
01:00 +19°C° 0 mm 2 mps 718 mmHg 79%
02:00 +19°C° 0 mm 2 mps 718 mmHg 80%
03:00 +18°C° 0 mm 2 mps 718 mmHg 81%
04:00 +17°C° 0 mm 2 mps 718 mmHg 77%
05:00 +17°C° 0 mm 2 mps 718 mmHg 74%
06:00 +16°C° 0 mm 2 mps 718 mmHg 71%
07:00 +17°C° 0 mm 2 mps 718 mmHg 61%
08:00 +18°C° 0 mm 2 mps 719 mmHg 51%
09:00 +19°C° 0 mm 2 mps 719 mmHg 41%
10:00 +20°C° 0 mm 3 mps 720 mmHg 37%
11:00 +21°C° 0 mm 3 mps 720 mmHg 33%
12:00 +23°C° 0 mm 4 mps 720 mmHg 29%
13:00 +23°C° 0 mm 4 mps 720 mmHg 27%
14:00 +25°C° 0 mm 4 mps 720 mmHg 25%
15:00 +26°C° 0 mm 5 mps 719 mmHg 23%
16:00 +25°C° 0 mm 5 mps 719 mmHg 23%
17:00 +23°C° 0 mm 5 mps 719 mmHg 24%
18:00 +21°C° 0 mm 4 mps 719 mmHg 24%
19:00 +20°C° 0 mm 4 mps 720 mmHg 27%
20:00 +19°C° 0 mm 3 mps 720 mmHg 29%
21:00 +18°C° 0 mm 2 mps 720 mmHg 31%
22:00 +17°C° 0 mm 2 mps 720 mmHg 33%
23:00 +17°C° 0 mm 2 mps 720 mmHg 35%

26 Septiembre, Sábado

Tiempo Temperatura Precipitaciones Viento Presión Humedad
00:00 +16°C° 0 mm 2 mps 720 mmHg 37%
01:00 +15°C° 0 mm 1 mps 720 mmHg 38%
02:00 +15°C° 0 mm 1 mps 720 mmHg 39%
03:00 +14°C° 0 mm 1 mps 719 mmHg 40%
04:00 +14°C° 0 mm 1 mps 720 mmHg 41%
05:00 +14°C° 0 mm 2 mps 720 mmHg 42%
06:00 +14°C° 0 mm 2 mps 720 mmHg 43%
07:00 +15°C° 0 mm 2 mps 720 mmHg 40%
08:00 +17°C° 0 mm 2 mps 721 mmHg 38%
09:00 +18°C° 0 mm 2 mps 721 mmHg 36%
10:00 +20°C° 0 mm 2 mps 721 mmHg 33%
11:00 +21°C° 0 mm 2 mps 721 mmHg 31%
12:00 +24°C° 0 mm 3 mps 721 mmHg 29%
13:00 +24°C° 0 mm 3 mps 721 mmHg 27%
14:00 +25°C° 0 mm 3 mps 720 mmHg 25%
15:00 +26°C° 0 mm 3 mps 720 mmHg 23%
16:00 +24°C° 0 mm 3 mps 720 mmHg 23%
17:00 +22°C° 0 mm 3 mps 720 mmHg 23%
18:00 +21°C° 0 mm 2 mps 719 mmHg 24%
19:00 +20°C° 0 mm 2 mps 719 mmHg 26%
20:00 +19°C° 0 mm 2 mps 720 mmHg 28%
21:00 +18°C° 0 mm 2 mps 720 mmHg 30%
22:00 +18°C° 0 mm 2 mps 719 mmHg 32%
23:00 +17°C° 0 mm 2 mps 719 mmHg 35%

27 Septiembre, Domingo

Tiempo Temperatura Precipitaciones Viento Presión Humedad
00:00 +16°C° 0 mm 1 mps 719 mmHg 37%
01:00 +16°C° 0 mm 1 mps 719 mmHg 39%
02:00 +16°C° 0 mm 1 mps 718 mmHg 40%
03:00 +15°C° 0 mm 1 mps 718 mmHg 41%
04:00 +15°C° 0 mm 1 mps 718 mmHg 42%
05:00 +15°C° 0 mm 1 mps 718 mmHg 43%
06:00 +14°C° 0 mm 1 mps 718 mmHg 44%
07:00 +16°C° 0 mm 1 mps 718 mmHg 39%
08:00 +18°C° 0 mm 2 mps 718 mmHg 35%
09:00 +20°C° 0 mm 2 mps 718 mmHg 30%
10:00 +23°C° 0 mm 2 mps 718 mmHg 28%
11:00 +24°C° 0 mm 2 mps 718 mmHg 25%
12:00 +26°C° 0 mm 2 mps 718 mmHg 23%
13:00 +26°C° 0 mm 2 mps 718 mmHg 23%
14:00 +27°C° 0 mm 3 mps 717 mmHg 23%
15:00 +28°C° 0 mm 3 mps 717 mmHg 23%
16:00 +26°C° 0 mm 3 mps 716 mmHg 25%
17:00 +25°C° 0 mm 2 mps 716 mmHg 27%
18:00 +24°C° 0 mm 2 mps 716 mmHg 29%
19:00 +23°C° 0 mm 2 mps 716 mmHg 31%
20:00 +21°C° 0 mm 2 mps 716 mmHg 33%
21:00 +20°C° 0 mm 2 mps 717 mmHg 36%
22:00 +20°C° 0 mm 2 mps 716 mmHg 37%
23:00 +19°C° 0 mm 2 mps 716 mmHg 39%
Mostrar más